Location: Addison Town Hall
(32.9525°N, 96.8158°W)
Time: 00:09:16
(UTC+00:00)

Cosmos 1515 Rocket - Pass Details

Date: 08 March 2021
Orbit: 607 x 629 km, 82.5° (Epoch: 10 April)

Event Time Altitude Azimuth Distance (km) Brightness Sun altitude
Rises 12:05:33 0° 197° (SSW) 2,849 6.8 -9.3°
Reaches altitude 10° 12:07:48 10° 202° (SSW) 1,951 5.9 -8.9°
Maximum altitude 12:12:00 51° 278° (W) 768 3.7 -8.0°
Drops below altitude 10° 12:16:15 10° 355° (N) 1,973 6.1 -7.1°
Sets 12:18:33 0° 1° (N) 2,885 7.0 -6.6°
